Dover AFB, DE

1:38 AM EDT on April 25, 2017 (GMT -0400)
Dover Air Force Base

Weather History for KDOV - September, 2012

Change the Weather History Date:

Saturday, September 8, 2012

  Actual Average Record
Temperature  
Mean Temperature 75 °F -  
Max Temperature 86 °F 82 °F 93 °F (2016)
Min Temperature 64 °F 60 °F 47 °F (1984)
Cooling Degree Days 10    
Growing Degree Days 25 (Base 50)    
Moisture  
Dew Point 70 °F    
Average Humidity 90    
Maximum Humidity 100    
Minimum Humidity 58    
Precipitation  
Precipitation 0.30 in - - ()
Sea Level Pressure  
Sea Level Pressure 29.77 in    
Wind  
Wind Speed 9 mph (South)    
Max Wind Speed 36 mph    
Max Gust Speed 55 mph    
Visibility 8 miles    
Events Rain    
Averages and records for this station are not official NWS values.
T = Trace of Precipitation, MM = Missing Value Source: NWS Daily Summary

Daily Weather History Graph

Daily Weather History Graph

Search for Another Location

Airport or City:

Trip Planner

Search our weather history database for the weather conditions in past years. The results will help you decide how hot, cold, wet, or windy it might be!

Date:

Astronomy

Sep. 08, 2012 Rise Set
Actual Time 6:37 AM EDT 7:20 PM EDT
Civil Twilight 6:10 AM EDT 7:47 PM EDT
Nautical Twilight 5:38 AM EDT 8:19 PM EDT
Astronomical Twilight 5:05 AM EDT 8:52 PM EDT
Moon No Moon Rise 2:13 PM EDT (9/8)
Length of Visible Light 13h 37m
Length of Day
12h 43m
Waning Gibbous, 49% of the Moon is Illuminated
Sep 8
Waning Gibbous
Sep 15
New
Sep 22
First Quarter
Sep 29
Full
Oct 8
Last Quarter

Hourly Weather History & Observations

Time (EDT) Temp. Heat Index Dew Point Humidity Pressure Visibility Wind Dir Wind Speed Gust Speed Precip Events Conditions
12:21 AM 71.6 °F - 71.6 °F 100% 29.87 in 10.0 mi Calm Calm - N/A   Partly Cloudy
12:50 AM 71.6 °F - 69.8 °F 94% 29.88 in 8.0 mi SSE 4.6 mph - N/A   Mostly Cloudy
12:55 AM 71.4 °F - 71.1 °F 99% 29.88 in 9.0 mi SSE 3.5 mph - N/A   Mostly Cloudy
1:17 AM 71.6 °F - 69.8 °F 94% 29.88 in 9.0 mi SSE 5.8 mph - N/A   Mostly Cloudy
1:22 AM 71.6 °F - 69.8 °F 94% 29.88 in 9.0 mi SSE 4.6 mph - N/A   Scattered Clouds
1:41 AM 69.8 °F - 69.8 °F 100% 29.87 in 7.0 mi SE 4.6 mph - N/A   Partly Cloudy
1:55 AM 70.2 °F - 69.8 °F 99% 29.86 in 7.0 mi SE 4.6 mph - N/A   Clear
2:00 AM 69.8 °F - 69.8 °F 100% 29.86 in 7.0 mi SE 4.6 mph - N/A   Partly Cloudy
2:09 AM 71.6 °F - 69.8 °F 94% 29.86 in 7.0 mi SE 5.8 mph - N/A   Mostly Cloudy
2:20 AM 71.6 °F - 71.6 °F 100% 29.85 in 8.0 mi SE 5.8 mph - N/A   Mostly Cloudy
2:44 AM 71.6 °F - 71.6 °F 100% 29.84 in 9.0 mi SSE 6.9 mph - N/A   Overcast
2:55 AM 72.1 °F - 71.8 °F 99% 29.84 in 9.0 mi SSE 5.8 mph - N/A   Overcast
3:06 AM 71.6 °F - 71.6 °F 100% 29.84 in 9.0 mi SSE 5.8 mph - N/A   Overcast
3:16 AM 73.4 °F - 71.6 °F 94% 29.83 in 9.0 mi SSE 4.6 mph - N/A   Overcast
3:27 AM 73.4 °F - 73.4 °F 100% 29.83 in 9.0 mi SSE 4.6 mph - N/A   Overcast
3:38 AM 73.4 °F - 73.4 °F 100% 29.82 in 9.0 mi Calm Calm - N/A   Mostly Cloudy
3:41 AM 73.4 °F - 73.4 °F 100% 29.82 in 9.0 mi Calm Calm - N/A   Overcast
3:55 AM 72.9 °F - 72.7 °F 99% 29.82 in 10.0 mi SE 4.6 mph - N/A   Overcast
4:15 AM 73.4 °F - 73.4 °F 100% 29.82 in 10.0 mi SSE 4.6 mph - N/A   Overcast
4:37 AM 73.4 °F - 73.4 °F 100% 29.81 in 10.0 mi SSE 5.8 mph - N/A   Overcast
4:55 AM 73.8 °F - 73.6 °F 99% 29.81 in 10.0 mi South 5.8 mph - N/A   Overcast
5:41 AM 75.2 °F - 73.4 °F 94% 29.81 in 10.0 mi SSE 8.1 mph - N/A   Overcast
5:42 AM 75.2 °F - 73.4 °F 94% 29.81 in 10.0 mi South 9.2 mph - N/A   Overcast
5:55 AM 74.5 °F - 74.1 °F 99% 29.81 in 10.0 mi South 8.1 mph - N/A   Overcast
6:55 AM 74.7 °F - 74.3 °F 99% 29.79 in 7.0 mi SE 6.9 mph - N/A   Overcast
7:03 AM 75.2 °F - 75.2 °F 100% 29.79 in 8.0 mi SSE 8.1 mph - N/A   Overcast
7:04 AM 75.2 °F - 75.2 °F 100% 29.79 in 8.0 mi SSE 6.9 mph - N/A   Overcast
7:11 AM 75.2 °F - 75.2 °F 100% 29.79 in 8.0 mi SSE 8.1 mph - N/A   Overcast
7:19 AM 75.2 °F - 75.2 °F 100% 29.79 in 8.0 mi SSE 6.9 mph - N/A   Overcast
7:22 AM 75.2 °F - 75.2 °F 100% 29.79 in 9.0 mi SSE 6.9 mph - N/A   Overcast
7:55 AM 75.9 °F - 75.6 °F 99% 29.78 in 10.0 mi South 11.5 mph - N/A   Mostly Cloudy
8:07 AM 77.0 °F - 77.0 °F 100% 29.77 in 10.0 mi SSE 11.5 mph - N/A   Scattered Clouds
8:55 AM 78.3 °F - 75.2 °F 90% 29.76 in 10.0 mi South 12.7 mph - N/A   Partly Cloudy
9:32 AM 80.6 °F 86.2 °F 75.2 °F 84% 29.75 in 10.0 mi SSE 15.0 mph - N/A   Mostly Cloudy
9:47 AM 80.6 °F 86.2 °F 75.2 °F 84% 29.75 in 10.0 mi SSE 15.0 mph - N/A   Mostly Cloudy
9:52 AM 80.6 °F 86.2 °F 75.2 °F 84% 29.75 in 10.0 mi SSE 17.3 mph - N/A   Mostly Cloudy
9:55 AM 81.3 °F 87.6 °F 75.4 °F 82% 29.75 in 10.0 mi South 17.3 mph - N/A   Mostly Cloudy
9:57 AM 80.6 °F 86.2 °F 75.2 °F 84% 29.75 in 10.0 mi South 15.0 mph - N/A   Mostly Cloudy
10:29 AM 80.6 °F 85.4 °F 73.4 °F 79% 29.75 in 10.0 mi South 15.0 mph - N/A   Scattered Clouds
10:55 AM 81.9 °F 88.2 °F 74.7 °F 79% 29.74 in 10.0 mi South 12.7 mph - N/A   Scattered Clouds
11:55 AM 82.9 °F 89.1 °F 73.4 °F 73% 29.70 in 10.0 mi SSW 17.3 mph 23.0 mph N/A   Scattered Clouds
12:55 PM 86.0 °F 91.5 °F 71.2 °F 61% 29.68 in 10.0 mi South 23.0 mph - N/A   Clear
1:55 PM 86.7 °F 91.7 °F 70.3 °F 58% 29.67 in 10.0 mi South 21.9 mph 26.5 mph N/A   Partly Cloudy
2:55 PM 86.0 °F 90.7 °F 70.0 °F 59% 29.65 in 10.0 mi South 17.3 mph 26.5 mph N/A   Partly Cloudy
3:55 PM 86.4 °F 91.1 °F 70.0 °F 58% 29.62 in 10.0 mi South 16.1 mph 26.5 mph N/A   Clear
4:55 PM 84.0 °F 88.4 °F 70.0 °F 63% 29.61 in 10.0 mi South 23.0 mph - N/A   Partly Cloudy
5:50 PM 82.4 °F 86.3 °F 69.8 °F 66% 29.65 in 10.0 mi WSW 34.5 mph 51.8 mph N/A Rain Light Rain
5:54 PM 77.0 °F - 66.2 °F 69% 29.67 in 7.0 mi WNW 35.7 mph 55.2 mph N/A Rain Light Rain
5:55 PM 76.6 °F - 66.7 °F 71% 29.67 in 6.0 mi WNW 34.5 mph 55.2 mph 0.01 in Rain Light Rain
5:56 PM 75.2 °F - 66.2 °F 73% 29.67 in 3.0 mi WNW 28.8 mph 43.7 mph N/A Rain Light Rain
5:57 PM 75.2 °F - 66.2 °F 73% 29.67 in 1.8 mi WNW 31.1 mph 43.7 mph N/A Rain Light Rain
5:58 PM 73.4 °F - 66.2 °F 78% 29.67 in 1.0 mi NW 34.5 mph 43.7 mph N/A Rain Heavy Rain
6:00 PM 71.6 °F - 66.2 °F 83% 29.68 in 0.8 mi WNW 28.8 mph 43.7 mph N/A Rain Heavy Rain
6:03 PM 69.8 °F - 66.2 °F 88% 29.69 in 0.8 mi NW 27.6 mph 41.4 mph N/A Rain Light Rain
6:07 PM 68.0 °F - 64.4 °F 88% 29.70 in 1.2 mi WNW 28.8 mph 41.4 mph N/A Rain Light Rain
6:08 PM 68.0 °F - 64.4 °F 88% 29.70 in 2.0 mi WNW 26.5 mph 41.4 mph N/A Rain Light Rain
6:09 PM 68.0 °F - 64.4 °F 88% 29.70 in 3.0 mi WNW 24.2 mph 38.0 mph N/A Rain Light Rain
6:18 PM 66.2 °F - 64.4 °F 94% 29.72 in 7.0 mi WNW 19.6 mph 31.1 mph N/A Rain Rain
6:46 PM 66.2 °F - 64.4 °F 94% 29.72 in 10.0 mi NNW 12.7 mph - N/A   Mostly Cloudy
6:55 PM 65.5 °F - 64.2 °F 96% 29.71 in 10.0 mi NNW 11.5 mph - 0.17 in   Mostly Cloudy
7:40 PM 64.4 °F - 64.4 °F 100% 29.72 in 10.0 mi NNW 5.8 mph - N/A Rain Light Rain
7:55 PM 65.8 °F - 64.8 °F 96% 29.74 in 10.0 mi West 8.1 mph - 0.01 in Rain Light Rain
8:55 PM 66.6 °F - 64.9 °F 95% 29.78 in 10.0 mi SW 5.8 mph - 0.01 in   Light Drizzle
9:35 PM 66.2 °F - 66.2 °F 100% 29.79 in 4.0 mi Calm Calm - N/A Rain Light Rain
9:44 PM 66.2 °F - 66.2 °F 100% 29.80 in 6.0 mi WNW 4.6 mph - N/A Rain Light Rain
9:55 PM 66.4 °F - 65.5 °F 97% 29.80 in 10.0 mi West 6.9 mph - 0.07 in Rain Light Rain
10:02 PM 66.2 °F - 66.2 °F 100% 29.80 in 10.0 mi NW 4.6 mph - N/A Rain Light Rain
10:55 PM 66.0 °F - 64.9 °F 96% 29.79 in 10.0 mi Calm Calm - 0.01 in Rain Light Rain
11:55 PM 66.6 °F - 66.0 °F 98% 29.81 in 8.0 mi SW 4.6 mph - 0.02 in Rain Light Rain